Date String (YYYY-MM-DD hh:mm:ss) UTC,Instrument flags,Ambient pressure (hPa),Sample flow (lpm),Bypass flow (lpm),Sample temperature (°C),Ambient temperature (°C),ASC tube jacket temperature (°C),LED temperature (°C),Box temperature (°C),Sample RH (%),Span deviation,Mass concentration (μg/m³),Mass concentration (μg/m³),Mass concentration (μg/m³)
DateTimeUTC,F1_M11,P_M11,Q1_M11,Q2_M11,T1_M11,T2_M11,T3_M11,T4_M11,T5_M11,U1_M11,ZSPAN_M11,X0_M11,X2_M11,X1_M11
2021-12-20 13:00:00,,0826.0,4.99,0.00,23.2,22.3,00.0,32.2,24.9,06.5,0000.0,0000.79,0000.47,0000.37
2021-12-20 13:01:00,,0826.2,5.01,0.00,23.2,22.3,00.0,32.2,24.9,06.5,0000.0,0000.80,0000.48,0000.37
2021-12-20 13:02:00,,0825.9,5.00,0.00,23.2,22.3,00.0,32.2,24.9,06.5,0000.0,0000.80,0000.48,0000.37
2021-12-20 13:03:00,,0826.2,4.99,0.00,23.2,22.2,00.0,32.2,24.9,06.5,0000.0,0000.78,0000.46,0000.38
2021-12-20 13:04:00,,0825.9,5.00,0.00,23.2,22.2,00.0,32.2,24.9,06.5,0000.0,0000.76,0000.46,0000.37
2021-12-20 13:05:00,,0825.9,5.01,0.00,23.2,22.2,00.0,32.2,24.9,06.6,0000.0,0000.76,0000.46,0000.37
2021-12-20 13:06:00,,0825.8,4.99,0.00,23.2,22.3,00.0,32.2,24.9,06.6,0000.0,0000.78,0000.47,0000.38
2021-12-20 13:07:00,,0825.8,5.00,0.00,23.2,22.3,00.0,32.2,24.9,06.5,0000.0,0000.76,0000.47,0000.38
2021-12-20 13:08:00,,0825.8,5.02,0.00,23.2,22.3,00.0,32.2,24.9,06.5,0000.0,0000.70,0000.45,0000.39
2021-12-20 13:09:00,,0825.8,4.99,0.00,23.2,22.3,00.0,32.2,24.9,06.6,0000.0,0000.79,0000.46,0000.39
2021-12-20 13:10:00,,0825.8,5.00,0.00,23.2,22.3,00.0,32.2,24.9,06.6,0000.0,0000.69,0000.45,0000.40
2021-12-20 13:11:00,,0825.8,4.98,0.00,23.2,22.3,00.0,32.2,24.9,06.6,0000.0,0000.64,0000.44,0000.39
2021-12-20 13:12:00,,0825.8,5.02,0.00,23.2,22.3,00.0,32.2,24.9,06.6,0000.0,0000.64,0000.44,0000.39
2021-12-20 13:13:00,,0825.7,4.99,0.00,23.2,22.2,00.0,32.2,24.9,06.6,0000.0,0000.64,0000.44,0000.38
2021-12-20 13:14:00,,0826.1,5.00,0.00,23.2,22.2,00.0,32.2,24.9,06.6,0000.0,0000.62,0000.43,0000.38
2021-12-20 13:15:00,,0825.8,5.00,0.00,23.2,22.3,00.0,32.2,24.9,06.6,0000.0,0000.64,0000.44,0000.38
2021-12-20 13:16:00,,0825.9,5.00,0.00,23.2,22.3,00.0,32.2,24.9,06.6,0000.0,0000.65,0000.44,0000.38
2021-12-20 13:17:00,,0825.9,5.00,0.00,23.2,22.3,00.0,32.2,24.9,06.6,0000.0,0000.67,0000.45,0000.39
2021-12-20 13:18:00,,0825.9,5.01,0.00,23.2,22.3,00.0,32.2,24.9,06.6,0000.0,0000.63,0000.43,0000.38
2021-12-20 13:19:00,,0825.8,5.01,0.00,23.2,22.3,00.0,32.2,24.9,06.6,0000.0,0000.63,0000.42,0000.37
2021-12-20 13:20:00,,0825.8,4.99,0.00,23.2,22.3,00.0,32.2,24.9,06.7,0000.0,0000.53,0000.42,0000.37
2021-12-20 13:21:00,,0825.8,5.01,0.00,23.2,22.2,00.0,32.2,24.9,06.7,0000.0,0000.51,0000.41,0000.37
2021-12-20 13:22:00,,0825.9,5.00,0.00,23.2,22.3,00.0,32.2,24.9,06.7,0000.0,0000.51,0000.41,0000.37
2021-12-20 13:23:00,,0825.9,5.00,0.00,23.2,22.3,00.0,32.2,24.9,06.7,0000.0,0000.51,0000.41,0000.37
2021-12-20 13:24:00,,0825.9,5.00,0.00,23.2,22.3,00.0,32.2,24.9,06.7,0000.0,0000.48,0000.39,0000.37
2021-12-20 13:25:00,,0826.0,4.99,0.00,23.2,22.3,00.0,32.2,24.9,06.7,0000.0,0000.49,0000.40,0000.37
2021-12-20 13:26:00,,0825.9,5.01,0.00,23.2,22.2,00.0,32.2,24.9,06.7,0000.0,0000.47,0000.39,0000.36
2021-12-20 13:27:00,,0825.9,4.99,0.00,23.2,22.2,00.0,32.2,24.9,06.7,0000.0,0000.48,0000.39,0000.36
2021-12-20 13:28:00,,0825.9,4.99,0.00,23.2,22.2,00.0,32.2,24.8,06.7,0000.0,0000.45,0000.37,0000.35
2021-12-20 13:29:00,,0825.9,5.00,0.00,23.2,22.2,00.0,32.2,24.8,06.7,0000.0,0000.47,0000.39,0000.36
2021-12-20 13:30:00,,0825.9,5.00,0.00,23.2,22.2,00.0,32.2,24.9,06.7,0000.0,0000.49,0000.40,0000.36
2021-12-20 13:31:00,,0825.9,5.01,0.00,23.2,22.2,00.0,32.2,24.9,06.7,0000.0,0000.49,0000.40,0000.36
2021-12-20 13:32:00,,0825.9,5.00,0.00,23.2,22.2,00.0,32.2,24.9,06.7,0000.0,0000.49,0000.40,0000.36
2021-12-20 13:33:00,,0825.9,5.00,0.00,23.1,22.2,00.0,32.2,24.9,06.6,0000.0,0000.49,0000.41,0000.36
2021-12-20 13:34:00,,0825.9,5.00,0.00,23.1,22.3,00.0,32.2,24.9,06.5,0000.0,0000.51,0000.41,0000.36
2021-12-20 13:35:00,,0825.9,5.00,0.00,23.1,22.3,00.0,32.2,24.9,06.4,0000.0,0000.54,0000.42,0000.36
2021-12-20 13:36:00,,0825.9,4.99,0.00,23.1,22.3,00.0,32.2,24.9,06.6,0000.0,0000.56,0000.43,0000.36
2021-12-20 13:37:00,,0825.9,5.00,0.00,23.1,22.3,00.0,32.2,24.9,06.6,0000.0,0000.55,0000.42,0000.36
2021-12-20 13:38:00,,0826.0,5.00,0.00,23.1,22.3,00.0,32.2,24.9,06.5,0000.0,0000.53,0000.42,0000.36
2021-12-20 13:39:00,,0826.0,4.99,0.00,23.1,22.3,00.0,32.2,24.9,06.5,0000.0,0000.61,0000.44,0000.36
2021-12-20 13:40:00,,0826.0,5.00,0.00,23.1,22.3,00.0,32.2,24.9,06.5,0000.0,0000.63,0000.45,0000.36
2021-12-20 13:41:00,,0826.0,4.99,0.00,23.1,22.3,00.0,32.2,24.9,06.5,0000.0,0000.61,0000.43,0000.36
2021-12-20 13:42:00,,0826.0,5.00,0.00,23.2,22.3,00.0,32.1,24.9,06.4,0000.0,0000.60,0000.42,0000.35
2021-12-20 13:43:00,,0826.1,5.01,0.00,23.2,22.3,00.0,32.2,24.9,06.4,0000.0,0000.60,0000.42,0000.35
2021-12-20 13:44:00,,0826.2,4.99,0.00,23.2,22.4,00.0,32.2,24.9,06.5,0000.0,0000.59,0000.42,0000.35
2021-12-20 13:45:00,,0826.2,5.00,0.00,23.2,22.4,00.0,32.2,24.9,06.4,0000.0,0000.56,0000.41,0000.35
2021-12-20 13:46:00,,0826.2,5.01,0.00,23.2,22.4,00.0,32.2,24.9,06.5,0000.0,0000.53,0000.40,0000.34
2021-12-20 13:47:00,,0826.2,4.99,0.00,23.2,22.4,00.0,32.2,25.0,06.6,0000.0,0000.50,0000.39,0000.35
2021-12-20 13:48:00,,0826.2,5.01,0.00,23.2,22.4,00.0,32.2,24.9,06.6,0000.0,0000.50,0000.38,0000.34
2021-12-20 13:49:00,,0826.2,5.00,0.00,23.2,22.4,00.0,32.2,24.9,06.6,0000.0,0000.50,0000.38,0000.34
2021-12-20 13:50:00,,0826.3,5.00,0.00,23.2,22.4,00.0,32.2,25.0,06.4,0000.0,0000.45,0000.37,0000.34
2021-12-20 13:51:00,,0826.3,4.99,0.00,23.2,22.4,00.0,32.2,25.0,06.3,0000.0,0000.44,0000.37,0000.35
2021-12-20 13:52:00,,0826.4,5.01,0.00,23.2,22.4,00.0,32.2,25.0,06.3,0000.0,0000.46,0000.38,0000.35
2021-12-20 13:53:00,,0826.4,5.00,0.00,23.2,22.4,00.0,32.2,25.0,06.3,0000.0,0000.52,0000.40,0000.36
2021-12-20 13:54:00,,0826.4,5.01,0.00,23.2,22.4,00.0,32.2,25.0,06.3,0000.0,0000.56,0000.43,0000.37
2021-12-20 13:55:00,,0826.4,4.99,0.00,23.2,22.4,00.0,32.2,25.0,06.2,0000.0,0000.58,0000.44,0000.38
2021-12-20 13:56:00,,0826.5,5.02,0.00,23.2,22.4,00.0,32.2,25.0,06.2,0000.0,0000.66,0000.47,0000.38
2021-12-20 13:57:00,,0826.5,4.98,0.00,23.2,22.4,00.0,32.2,25.0,06.3,0000.0,0000.68,0000.48,0000.39
2021-12-20 13:58:00,,0826.5,5.01,0.00,23.2,22.4,00.0,32.2,25.0,06.3,0000.0,0001.42,0000.48,0000.38
2021-12-20 13:59:00,,0826.5,4.99,0.00,23.2,22.4,00.0,32.2,25.0,06.3,0000.0,0001.70,0000.48,0000.39
